Visalia, CA

6:33 AM PDT on September 15, 2019 (GMT -0700)
Visalia Municipal

Weather History for KVIS - August, 2019

Change the Weather History Date:

Sunday, August 18, 2019

  Actual Average Record
Temperature  
Mean Temperature 78 °F -  
Max Temperature 93 °F 92 °F 109 °F (1934)
Min Temperature 63 °F 63 °F 57 °F (1932)
Cooling Degree Days 13    
Growing Degree Days 28 (Base 50)    
Moisture  
Dew Point 54 °F    
Average Humidity 48    
Maximum Humidity 84    
Minimum Humidity 23    
Precipitation  
Precipitation 0.00 in - - ()
Sea Level Pressure  
Sea Level Pressure 29.83 in    
Wind  
Wind Speed 4 mph (SW)    
Max Wind Speed 9 mph    
Max Gust Speed -    
Visibility 10 miles    
Events      
Averages and records for this station are not official NWS values.
T = Trace of Precipitation, MM = Missing Value Source: NWS Daily Summary

Daily Weather History Graph

Daily Weather History Graph

Search for Another Location

Airport or City:

Astronomy

Aug. 18, 2019 Rise Set
Actual Time 6:17 AM PDT 7:44 PM PDT
Civil Twilight 5:50 AM PDT 8:11 PM PDT
Nautical Twilight 5:18 AM PDT 8:43 PM PDT
Astronomical Twilight 4:43 AM PDT 9:17 PM PDT
Moon 9:46 PM PDT (8/18) 9:03 AM PDT (8/18)
Length of Visible Light 14h 20m
Length of Day
13h 26m
Waning Gibbous, 91% of the Moon is Illuminated
Aug 18
Waning Gibbous
Aug 23
Last Quarter
Aug 30
New
Sep 5
First Quarter
Sep 13
Full

Hourly Weather History & Observations

Time (PDT) Temp. Heat Index Dew Point Humidity Pressure Visibility Wind Dir Wind Speed Gust Speed Precip Events Conditions
12:56 AM 70.0 °F - 55.9 °F 61% 29.78 in 10.0 mi WSW 5.8 mph - N/A   Clear
1:56 AM 66.9 °F - 55.9 °F 68% 29.79 in 10.0 mi Calm Calm - N/A   Clear
2:56 AM 66.9 °F - 55.0 °F 66% 29.80 in 10.0 mi Calm Calm - N/A   Clear
3:56 AM 64.9 °F - 55.0 °F 70% 29.81 in 10.0 mi SSW 3.5 mph - N/A   Clear
4:56 AM 64.0 °F - 57.0 °F 78% 29.81 in 10.0 mi Calm Calm - N/A   Clear
5:56 AM 64.0 °F - 55.0 °F 73% 29.81 in 10.0 mi Calm Calm - N/A   Clear
6:56 AM 63.0 °F - 57.9 °F 84% 29.83 in 10.0 mi East 3.5 mph - N/A   Clear
7:56 AM 69.1 °F - 57.0 °F 65% 29.85 in 10.0 mi SE 3.5 mph - N/A   Clear
8:56 AM 75.0 °F - 55.0 °F 50% 29.86 in 9.0 mi SE 5.8 mph - N/A   Clear
9:56 AM 80.1 °F 80.0 °F 54.0 °F 40% 29.87 in 10.0 mi Variable 5.8 mph - N/A   Clear
10:56 AM 84.0 °F - 52.0 °F 33% 29.87 in 10.0 mi Variable 3.5 mph - N/A   Clear
11:56 AM 84.0 °F 82.6 °F 54.0 °F 35% 29.87 in 10.0 mi Variable 5.8 mph - N/A   Clear
12:56 PM 87.1 °F 85.1 °F 54.0 °F 32% 29.86 in 10.0 mi South 4.6 mph - N/A   Clear
1:56 PM 90.0 °F 87.9 °F 55.0 °F 30% 29.85 in 10.0 mi Variable 5.8 mph - N/A   Clear
2:56 PM 91.9 °F - 52.0 °F 26% 29.83 in 10.0 mi SSW 6.9 mph - N/A   Clear
3:56 PM 93.0 °F - 51.1 °F 24% 29.81 in 10.0 mi South 6.9 mph - N/A   Clear
4:56 PM 93.0 °F - 50.0 °F 23% 29.80 in 10.0 mi SSW 4.6 mph - N/A   Clear
5:56 PM 93.0 °F - 50.0 °F 23% 29.79 in 10.0 mi WNW 3.5 mph - N/A   Clear
6:56 PM 91.0 °F 88.7 °F 54.0 °F 28% 29.79 in 10.0 mi West 5.8 mph - N/A   Clear
7:56 PM 86.0 °F - 51.1 °F 30% 29.79 in 10.0 mi North 3.5 mph - N/A   Clear
8:56 PM 79.0 °F - 55.9 °F 45% 29.81 in 10.0 mi Calm Calm - N/A   Clear
9:56 PM 78.1 °F - 57.9 °F 50% 29.84 in 10.0 mi WNW 9.2 mph - N/A   Clear
10:56 PM 75.0 °F - 57.9 °F 55% 29.85 in 10.0 mi WNW 8.1 mph - N/A   Clear
11:56 PM 73.0 °F - 55.0 °F 53% 29.86 in 10.0 mi NNW 5.8 mph - N/A   Clear